Time,TemperatureF,DewpointF,PressureIn,WindDirection,WindDirectionDegrees,WindSpeedMPH,WindSpeedGustMPH,Humidity,HourlyPrecipIn,Conditions,Clouds,dailyrainin,SolarRadiationWatts/m^2,SoftwareType,DateUTC
2013-06-09 00:01:00,59.0,55.3,30.05,South,190,0.0,4.0,87,0.00,,,0.00,0,WxPro DR1,2013-06-09 04:01:00,
2013-06-09 00:06:00,59.0,55.5,30.05,South,190,0.0,4.0,88,0.00,,,0.00,0,WxPro DR1,2013-06-09 04:06:00,
2013-06-09 00:11:00,59.0,55.4,30.05,SSW,194,0.0,4.0,88,0.00,,,0.00,0,WxPro DR1,2013-06-09 04:11:00,
2013-06-09 00:16:00,58.8,55.3,30.05,SSW,194,0.0,4.0,88,0.00,,,0.00,0,WxPro DR1,2013-06-09 04:16:00,
2013-06-09 00:21:00,58.7,55.2,30.05,South,184,1.0,4.0,88,0.00,,,0.00,0,WxPro DR1,2013-06-09 04:21:00,
2013-06-09 00:26:00,58.7,55.2,30.05,South,185,0.0,4.0,88,0.00,,,0.00,0,WxPro DR1,2013-06-09 04:26:00,
2013-06-09 00:31:00,58.7,55.1,30.05,South,184,0.0,3.0,88,0.00,,,0.00,0,WxPro DR1,2013-06-09 04:31:00,
2013-06-09 00:36:00,58.5,55.0,30.05,South,184,0.0,3.0,88,0.00,,,0.00,0,WxPro DR1,2013-06-09 04:36:00,
2013-06-09 00:41:00,58.4,55.1,30.05,South,184,1.0,2.0,89,0.01,,,0.01,0,WxPro DR1,2013-06-09 04:41:00,
2013-06-09 00:46:00,58.1,54.9,30.05,South,185,3.0,3.0,89,0.01,,,0.01,0,WxPro DR1,2013-06-09 04:46:00,
2013-06-09 00:51:00,57.9,54.7,30.05,South,184,0.0,3.0,89,0.01,,,0.01,0,WxPro DR1,2013-06-09 04:51:00,
2013-06-09 00:56:00,57.8,54.5,30.05,South,185,0.0,2.0,89,0.01,,,0.01,0,WxPro DR1,2013-06-09 04:56:00,
2013-06-09 01:01:00,57.6,54.9,30.05,South,184,0.0,1.0,91,0.01,,,0.01,0,WxPro DR1,2013-06-09 05:01:00,
2013-06-09 01:06:00,57.4,54.5,30.05,South,185,0.0,1.0,90,0.01,,,0.01,0,WxPro DR1,2013-06-09 05:06:00,
2013-06-09 01:11:00,57.2,54.3,30.05,South,184,0.0,1.0,90,0.01,,,0.01,0,WxPro DR1,2013-06-09 05:11:00,
2013-06-09 01:16:00,56.9,54.0,30.06,South,185,0.0,2.0,90,0.01,,,0.01,0,WxPro DR1,2013-06-09 05:16:00,
2013-06-09 01:21:00,56.7,54.0,30.06,South,184,0.0,2.0,91,0.01,,,0.01,0,WxPro DR1,2013-06-09 05:21:00,
2013-06-09 01:26:00,56.4,53.8,30.06,South,184,0.0,2.0,91,0.01,,,0.01,0,WxPro DR1,2013-06-09 05:26:00,
2013-06-09 01:31:00,56.2,53.9,30.06,South,184,0.0,0.0,92,0.01,,,0.01,0,WxPro DR1,2013-06-09 05:31:00,
2013-06-09 01:36:00,56.1,53.8,30.05,South,185,0.0,0.0,92,0.01,,,0.01,0,WxPro DR1,2013-06-09 05:36:00,
2013-06-09 01:42:00,56.0,53.7,30.05,South,185,0.0,0.0,92,0.00,,,0.01,0,WxPro DR1,2013-06-09 05:42:00,
2013-06-09 01:47:00,55.9,53.9,30.06,South,184,0.0,2.0,93,0.00,,,0.01,0,WxPro DR1,2013-06-09 05:47:00,
2013-06-09 01:52:00,55.8,53.8,30.06,South,184,0.0,2.0,93,0.00,,,0.01,0,WxPro DR1,2013-06-09 05:52:00,
2013-06-09 01:57:00,55.8,53.8,30.06,South,184,0.0,2.0,93,0.00,,,0.01,0,WxPro DR1,2013-06-09 05:57:00,
2013-06-09 02:02:00,55.8,53.8,30.06,South,184,1.0,2.0,93,0.00,,,0.01,0,WxPro DR1,2013-06-09 06:02:00,
2013-06-09 02:07:00,55.8,53.8,30.06,South,184,0.0,2.0,93,0.00,,,0.01,0,WxPro DR1,2013-06-09 06:07:00,
2013-06-09 02:12:00,55.9,53.9,30.06,South,184,0.0,2.0,93,0.00,,,0.01,0,WxPro DR1,2013-06-09 06:12:00,
2013-06-09 02:17:00,56.0,54.0,30.06,South,184,0.0,2.0,93,0.00,,,0.01,0,WxPro DR1,2013-06-09 06:17:00,
2013-06-09 02:22:00,56.2,54.2,30.06,South,184,0.0,2.0,93,0.00,,,0.01,0,WxPro DR1,2013-06-09 06:22:00,
2013-06-09 02:27:00,56.3,54.3,30.06,South,184,0.0,0.0,93,0.00,,,0.01,0,WxPro DR1,2013-06-09 06:27:00,
2013-06-09 02:32:00,56.3,54.3,30.06,South,185,0.0,0.0,93,0.00,,,0.01,0,WxPro DR1,2013-06-09 06:32:00,
2013-06-09 02:37:00,56.4,54.1,30.06,South,184,0.0,0.0,92,0.00,,,0.01,0,WxPro DR1,2013-06-09 06:37:00,
2013-06-09 02:42:00,56.5,54.2,30.06,South,184,0.0,1.0,92,0.00,,,0.01,0,WxPro DR1,2013-06-09 06:42:00,
2013-06-09 02:47:00,56.5,54.2,30.06,South,185,0.0,1.0,92,0.00,,,0.01,0,WxPro DR1,2013-06-09 06:47:00,
2013-06-09 02:52:00,56.6,54.3,30.06,South,184,1.0,1.0,92,0.00,,,0.01,0,WxPro DR1,2013-06-09 06:52:00,
2013-06-09 02:57:00,56.7,54.1,30.06,South,184,0.0,1.0,91,0.00,,,0.01,0,WxPro DR1,2013-06-09 06:57:00,
2013-06-09 03:02:00,56.8,54.2,30.06,South,184,0.0,2.0,91,0.00,,,0.01,0,WxPro DR1,2013-06-09 07:02:00,
2013-06-09 03:07:00,56.9,54.3,30.06,South,184,0.0,3.0,91,0.00,,,0.01,0,WxPro DR1,2013-06-09 07:07:00,
2013-06-09 03:12:00,56.9,54.0,30.06,South,184,0.0,3.0,90,0.00,,,0.01,0,WxPro DR1,2013-06-09 07:12:00,
2013-06-09 03:17:00,56.9,54.0,30.06,South,184,0.0,1.0,90,0.00,,,0.01,0,WxPro DR1,2013-06-09 07:17:00,
2013-06-09 03:22:00,56.9,54.0,30.06,South,184,0.0,2.0,90,0.00,,,0.01,0,WxPro DR1,2013-06-09 07:22:00,
2013-06-09 03:27:00,56.8,53.6,30.07,South,185,0.0,2.0,89,0.00,,,0.01,0,WxPro DR1,2013-06-09 07:27:00,
2013-06-09 03:32:00,56.7,53.5,30.07,South,184,1.0,2.0,89,0.00,,,0.01,0,WxPro DR1,2013-06-09 07:32:00,
2013-06-09 03:37:00,56.6,53.4,30.07,South,184,0.0,2.0,89,0.00,,,0.01,0,WxPro DR1,2013-06-09 07:37:00,
2013-06-09 03:42:00,56.5,53.3,30.07,South,184,0.0,2.0,89,0.00,,,0.01,0,WxPro DR1,2013-06-09 07:42:00,
2013-06-09 03:47:00,56.4,53.2,30.08,South,185,0.0,1.0,89,0.00,,,0.01,0,WxPro DR1,2013-06-09 07:47:00,
2013-06-09 03:52:00,56.5,53.3,30.08,South,184,0.0,1.0,89,0.00,,,0.01,0,WxPro DR1,2013-06-09 07:52:00,
2013-06-09 03:57:00,56.5,53.3,30.08,South,184,0.0,2.0,89,0.00,,,0.01,0,WxPro DR1,2013-06-09 07:57:00,
2013-06-09 04:02:00,56.6,53.4,30.08,South,185,0.0,2.0,89,0.00,,,0.01,0,WxPro DR1,2013-06-09 08:02:00,
2013-06-09 04:07:00,56.7,53.5,30.08,SSW,202,0.0,4.0,89,0.00,,,0.01,0,WxPro DR1,2013-06-09 08:07:00,
2013-06-09 04:12:00,56.7,53.5,30.08,SSW,202,0.0,4.0,89,0.00,,,0.01,0,WxPro DR1,2013-06-09 08:12:00,
2013-06-09 04:17:00,56.7,53.5,30.08,SSW,202,0.0,2.0,89,0.00,,,0.01,0,WxPro DR1,2013-06-09 08:17:00,
2013-06-09 04:22:00,56.6,53.3,30.09,SSW,202,0.0,1.0,89,0.00,,,0.01,0,WxPro DR1,2013-06-09 08:22:00,
2013-06-09 04:27:00,56.4,53.5,30.09,SSW,202,0.0,1.0,90,0.00,,,0.01,0,WxPro DR1,2013-06-09 08:27:00,
2013-06-09 04:32:00,56.4,53.5,30.09,SSW,202,0.0,2.0,90,0.00,,,0.01,0,WxPro DR1,2013-06-09 08:32:00,
2013-06-09 04:37:00,56.4,53.5,30.09,SSW,198,0.0,4.0,90,0.00,,,0.01,0,WxPro DR1,2013-06-09 08:37:00,
2013-06-09 04:42:00,56.4,53.5,30.09,SSW,198,0.0,4.0,90,0.00,,,0.01,0,WxPro DR1,2013-06-09 08:42:00,
2013-06-09 04:47:00,56.4,53.5,30.09,SSW,194,0.0,3.0,90,0.00,,,0.01,0,WxPro DR1,2013-06-09 08:47:00,
2013-06-09 04:52:00,56.4,53.5,30.09,SSW,195,0.0,2.0,90,0.00,,,0.01,0,WxPro DR1,2013-06-09 08:52:00,
2013-06-09 04:57:00,56.4,53.5,30.09,SSW,195,0.0,2.0,90,0.00,,,0.01,0,WxPro DR1,2013-06-09 08:57:00,
2013-06-09 05:02:00,56.4,53.5,30.10,SSW,195,0.0,3.0,90,0.00,,,0.01,0,WxPro DR1,2013-06-09 09:02:00,
2013-06-09 05:07:00,56.3,53.4,30.10,SSW,194,0.0,3.0,90,0.00,,,0.01,0,WxPro DR1,2013-06-09 09:07:00,
2013-06-09 05:12:00,56.3,53.4,30.10,WSW,258,0.0,5.0,90,0.00,,,0.01,0,WxPro DR1,2013-06-09 09:12:00,
2013-06-09 05:17:00,56.2,53.3,30.11,WSW,257,0.0,5.0,90,0.00,,,0.01,0,WxPro DR1,2013-06-09 09:17:00,
2013-06-09 05:22:00,56.2,53.3,30.11,WSW,257,0.0,3.0,90,0.00,,,0.01,0,WxPro DR1,2013-06-09 09:22:00,
2013-06-09 05:27:00,56.0,53.4,30.11,WSW,256,1.0,3.0,91,0.00,,,0.01,0,WxPro DR1,2013-06-09 09:27:00,
2013-06-09 05:32:00,55.9,53.3,30.11,WSW,257,2.0,2.0,91,0.00,,,0.01,5,WxPro DR1,2013-06-09 09:32:00,
2013-06-09 05:37:00,55.8,53.2,30.11,WSW,256,0.0,2.0,91,0.00,,,0.01,7,WxPro DR1,2013-06-09 09:37:00,
2013-06-09 05:42:00,55.7,53.1,30.11,WSW,256,0.0,2.0,91,0.00,,,0.01,11,WxPro DR1,2013-06-09 09:42:00,
2013-06-09 05:47:00,55.5,53.2,30.11,WSW,257,0.0,1.0,92,0.00,,,0.01,16,WxPro DR1,2013-06-09 09:47:00,
2013-06-09 05:52:00,55.4,53.2,30.12,WSW,257,0.0,0.0,92,0.00,,,0.01,21,WxPro DR1,2013-06-09 09:52:00,
2013-06-09 05:57:00,55.3,53.0,30.12,WSW,257,0.0,0.0,92,0.00,,,0.01,25,WxPro DR1,2013-06-09 09:57:00,
2013-06-09 06:02:00,55.2,53.0,30.12,WSW,256,0.0,0.0,92,0.00,,,0.01,30,WxPro DR1,2013-06-09 10:02:00,
2013-06-09 06:07:00,55.2,53.2,30.12,WSW,257,0.0,0.0,93,0.00,,,0.01,33,WxPro DR1,2013-06-09 10:07:00,
2013-06-09 06:12:00,55.2,53.2,30.12,WSW,257,0.0,0.0,93,0.00,,,0.01,37,WxPro DR1,2013-06-09 10:12:00,
2013-06-09 06:17:00,55.3,53.3,30.13,WSW,256,0.0,2.0,93,0.00,,,0.01,42,WxPro DR1,2013-06-09 10:17:00,
2013-06-09 06:22:00,55.4,53.4,30.12,WSW,256,1.0,2.0,93,0.00,,,0.01,46,WxPro DR1,2013-06-09 10:22:00,
2013-06-09 06:27:00,55.5,53.5,30.12,WSW,257,0.0,2.0,93,0.00,,,0.01,49,WxPro DR1,2013-06-09 10:27:00,
2013-06-09 06:32:00,55.7,53.7,30.13,WSW,257,0.0,2.0,93,0.00,,,0.01,47,WxPro DR1,2013-06-09 10:32:00,
2013-06-09 06:37:00,55.9,53.9,30.13,WSW,256,0.0,2.0,93,0.00,,,0.01,58,WxPro DR1,2013-06-09 10:37:00,
2013-06-09 06:42:00,56.1,54.0,30.13,WSW,256,0.0,3.0,93,0.00,,,0.01,69,WxPro DR1,2013-06-09 10:42:00,
2013-06-09 06:47:00,56.3,54.0,30.13,WSW,256,0.0,3.0,92,0.00,,,0.01,72,WxPro DR1,2013-06-09 10:47:00,
2013-06-09 06:52:00,56.6,54.3,30.14,WSW,255,0.0,4.0,92,0.00,,,0.01,74,WxPro DR1,2013-06-09 10:52:00,
2013-06-09 06:57:00,56.8,54.5,30.14,WSW,255,0.0,4.0,92,0.00,,,0.01,65,WxPro DR1,2013-06-09 10:57:00,
2013-06-09 07:02:00,57.0,54.7,30.14,SW,230,1.0,2.0,92,0.00,,,0.01,83,WxPro DR1,2013-06-09 11:02:00,
2013-06-09 07:07:00,57.1,54.8,30.14,SW,230,0.0,2.0,92,0.00,,,0.01,88,WxPro DR1,2013-06-09 11:07:00,
2013-06-09 07:12:00,57.3,54.9,30.14,SW,228,0.0,2.0,92,0.00,,,0.01,153,WxPro DR1,2013-06-09 11:12:00,
2013-06-09 07:17:00,57.5,55.2,30.14,SW,222,0.0,2.0,92,0.00,,,0.01,206,WxPro DR1,2013-06-09 11:17:00,
2013-06-09 07:22:00,57.9,55.3,30.14,SW,222,0.0,2.0,91,0.00,,,0.01,163,WxPro DR1,2013-06-09 11:22:00,
2013-06-09 07:27:00,58.2,55.6,30.14,SW,221,0.0,3.0,91,0.00,,,0.01,163,WxPro DR1,2013-06-09 11:27:00,
2013-06-09 07:32:00,58.5,55.7,30.14,SW,221,0.0,4.0,90,0.00,,,0.01,142,WxPro DR1,2013-06-09 11:32:00,
2013-06-09 07:37:00,58.7,55.8,30.14,SW,219,0.0,4.0,90,0.00,,,0.01,155,WxPro DR1,2013-06-09 11:37:00,
2013-06-09 07:42:00,58.9,55.7,30.14,SSW,208,1.0,4.0,89,0.00,,,0.01,158,WxPro DR1,2013-06-09 11:42:00,
2013-06-09 07:47:00,59.0,55.8,30.14,SSW,208,0.0,4.0,89,0.00,,,0.01,156,WxPro DR1,2013-06-09 11:47:00,
2013-06-09 07:52:00,59.0,55.8,30.15,SSW,205,0.0,5.0,89,0.00,,,0.01,148,WxPro DR1,2013-06-09 11:52:00,
2013-06-09 07:57:00,59.0,55.8,30.15,SSW,207,3.0,5.0,89,0.00,,,0.01,158,WxPro DR1,2013-06-09 11:57:00,
2013-06-09 08:02:00,59.1,55.8,30.15,SSW,207,0.0,4.0,89,0.00,,,0.01,171,WxPro DR1,2013-06-09 12:02:00,
2013-06-09 08:07:00,59.2,55.7,30.15,WSW,244,0.0,5.0,88,0.00,,,0.01,199,WxPro DR1,2013-06-09 12:07:00,
2013-06-09 08:12:00,59.4,55.8,30.16,SW,236,0.0,5.0,88,0.00,,,0.01,223,WxPro DR1,2013-06-09 12:12:00,
2013-06-09 08:17:00,59.6,56.1,30.16,WSW,250,0.0,4.0,88,0.00,,,0.01,234,WxPro DR1,2013-06-09 12:17:00,
2013-06-09 08:22:00,59.8,55.9,30.16,WSW,258,0.0,4.0,87,0.00,,,0.01,264,WxPro DR1,2013-06-09 12:22:00,
2013-06-09 08:27:00,60.0,56.2,30.16,WSW,253,0.0,4.0,87,0.00,,,0.01,332,WxPro DR1,2013-06-09 12:27:00,
2013-06-09 08:32:00,60.6,56.7,30.16,WSW,253,0.0,3.0,87,0.00,,,0.01,496,WxPro DR1,2013-06-09 12:32:00,
2013-06-09 08:37:00,61.7,57.2,30.16,WSW,246,1.0,5.0,85,0.00,,,0.01,552,WxPro DR1,2013-06-09 12:37:00,
2013-06-09 08:42:00,62.1,57.2,30.16,West,260,1.0,6.0,84,0.00,,,0.01,260,WxPro DR1,2013-06-09 12:42:00,
2013-06-09 08:47:00,62.0,57.1,30.16,SSW,203,0.0,6.0,84,0.00,,,0.01,538,WxPro DR1,2013-06-09 12:47:00,
2013-06-09 08:52:00,62.1,57.2,30.16,SSW,205,0.0,6.0,84,0.00,,,0.01,550,WxPro DR1,2013-06-09 12:52:00,
2013-06-09 08:57:00,62.6,57.4,30.16,SSW,207,0.0,4.0,83,0.00,,,0.01,557,WxPro DR1,2013-06-09 12:57:00,
2013-06-09 09:02:00,63.0,57.7,30.16,SSW,211,0.0,7.0,83,0.00,,,0.01,564,WxPro DR1,2013-06-09 13:02:00,
2013-06-09 09:07:00,63.5,57.9,30.16,WSW,245,1.0,7.0,82,0.00,,,0.01,596,WxPro DR1,2013-06-09 13:07:00,
2013-06-09 09:12:00,63.9,58.0,30.17,WSW,240,1.0,6.0,81,0.00,,,0.01,563,WxPro DR1,2013-06-09 13:12:00,
2013-06-09 09:17:00,64.5,58.2,30.16,SSW,209,1.0,5.0,80,0.00,,,0.01,617,WxPro DR1,2013-06-09 13:17:00,
2013-06-09 09:22:00,65.3,58.9,30.17,WSW,240,2.0,5.0,80,0.00,,,0.01,612,WxPro DR1,2013-06-09 13:22:00,
2013-06-09 09:27:00,66.1,59.5,30.16,WSW,241,2.0,5.0,79,0.00,,,0.01,647,WxPro DR1,2013-06-09 13:27:00,
2013-06-09 09:32:00,66.5,58.8,30.16,West,275,1.0,5.0,76,0.00,,,0.01,626,WxPro DR1,2013-06-09 13:32:00,
2013-06-09 09:37:00,66.7,58.6,30.16,SW,233,0.0,5.0,75,0.00,,,0.01,675,WxPro DR1,2013-06-09 13:37:00,
2013-06-09 09:42:00,67.0,58.8,30.16,WSW,244,1.0,5.0,75,0.00,,,0.01,684,WxPro DR1,2013-06-09 13:42:00,
2013-06-09 09:47:00,67.0,58.6,30.16,WSW,250,3.0,6.0,74,0.00,,,0.01,696,WxPro DR1,2013-06-09 13:47:00,
2013-06-09 09:52:00,67.2,58.2,30.16,WSW,250,1.0,6.0,73,0.00,,,0.01,710,WxPro DR1,2013-06-09 13:52:00,
2013-06-09 09:57:00,67.5,57.9,30.16,West,259,2.0,6.0,72,0.00,,,0.01,740,WxPro DR1,2013-06-09 13:57:00,
2013-06-09 10:02:00,67.5,58.2,30.16,WNW,282,0.0,6.0,72,0.00,,,0.01,722,WxPro DR1,2013-06-09 14:02:00,
2013-06-09 10:07:00,67.5,58.1,30.16,West,281,1.0,6.0,72,0.00,,,0.01,659,WxPro DR1,2013-06-09 14:07:00,
2013-06-09 10:12:00,68.0,58.3,30.16,WNW,284,0.0,6.0,71,0.00,,,0.01,772,WxPro DR1,2013-06-09 14:12:00,
2013-06-09 10:17:00,68.7,58.5,30.15,WNW,283,1.0,5.0,70,0.00,,,0.01,773,WxPro DR1,2013-06-09 14:17:00,
2013-06-09 10:22:00,69.4,58.5,30.16,WNW,282,1.0,5.0,68,0.00,,,0.01,793,WxPro DR1,2013-06-09 14:22:00,
2013-06-09 10:27:00,69.4,58.8,30.15,South,178,2.0,5.0,69,0.00,,,0.01,798,WxPro DR1,2013-06-09 14:27:00,
2013-06-09 10:32:00,69.5,58.5,30.15,WNW,300,1.0,7.0,68,0.00,,,0.01,814,WxPro DR1,2013-06-09 14:32:00,
2013-06-09 10:37:00,69.7,58.2,30.15,WNW,299,0.0,7.0,67,0.00,,,0.01,816,WxPro DR1,2013-06-09 14:37:00,
2013-06-09 10:42:00,70.0,58.4,30.15,NW,309,0.0,6.0,67,0.00,,,0.01,828,WxPro DR1,2013-06-09 14:42:00,
2013-06-09 10:47:00,70.6,58.7,30.15,NNW,333,2.0,6.0,66,0.00,,,0.01,863,WxPro DR1,2013-06-09 14:47:00,
2013-06-09 10:52:00,71.4,59.1,30.15,North,351,0.0,6.0,65,0.00,,,0.01,918,WxPro DR1,2013-06-09 14:52:00,
2013-06-09 10:57:00,72.7,59.9,30.15,WNW,298,0.0,5.0,64,0.00,,,0.01,905,WxPro DR1,2013-06-09 14:57:00,
2013-06-09 11:02:00,72.4,59.1,30.16,West,273,2.0,10.0,63,0.00,,,0.01,995,WxPro DR1,2013-06-09 15:02:00,
2013-06-09 11:07:00,71.4,59.2,30.16,West,270,1.0,10.0,65,0.00,,,0.01,965,WxPro DR1,2013-06-09 15:07:00,
2013-06-09 11:12:00,71.0,58.5,30.16,West,276,1.0,5.0,65,0.00,,,0.01,1100,WxPro DR1,2013-06-09 15:12:00,
2013-06-09 11:17:00,71.3,59.0,30.15,NE,43,2.0,5.0,65,0.00,,,0.01,299,WxPro DR1,2013-06-09 15:17:00,
2013-06-09 11:22:00,71.8,58.9,30.15,NNE,27,0.0,5.0,64,0.00,,,0.01,378,WxPro DR1,2013-06-09 15:22:00,
2013-06-09 11:27:00,72.0,59.2,30.15,North,11,1.0,5.0,64,0.00,,,0.01,1078,WxPro DR1,2013-06-09 15:27:00,
2013-06-09 11:32:00,72.7,58.5,30.15,North,356,1.0,6.0,61,0.00,,,0.01,1120,WxPro DR1,2013-06-09 15:32:00,
2013-06-09 11:37:00,73.4,59.4,30.15,North,351,3.0,6.0,62,0.00,,,0.01,1085,WxPro DR1,2013-06-09 15:37:00,
2013-06-09 11:42:00,72.8,58.8,30.15,NNW,346,2.0,5.0,62,0.00,,,0.01,341,WxPro DR1,2013-06-09 15:42:00,
2013-06-09 11:47:00,71.9,58.6,30.16,WNW,298,2.0,7.0,63,0.00,,,0.01,341,WxPro DR1,2013-06-09 15:47:00,
2013-06-09 11:52:00,71.0,57.9,30.16,WNW,298,0.0,7.0,63,0.00,,,0.01,251,WxPro DR1,2013-06-09 15:52:00,
2013-06-09 11:57:00,70.9,58.7,30.16,WNW,298,0.0,3.0,65,0.00,,,0.01,1035,WxPro DR1,2013-06-09 15:57:00,
2013-06-09 12:02:00,71.8,58.5,30.16,WNW,302,1.0,3.0,63,0.00,,,0.01,1046,WxPro DR1,2013-06-09 16:02:00,
2013-06-09 12:07:00,72.9,59.0,30.16,West,277,0.0,4.0,62,0.00,,,0.01,1090,WxPro DR1,2013-06-09 16:07:00,
2013-06-09 12:12:00,73.2,58.5,30.16,NW,317,2.0,6.0,60,0.00,,,0.01,914,WxPro DR1,2013-06-09 16:12:00,
2013-06-09 12:17:00,72.8,58.7,30.15,NW,317,0.0,6.0,61,0.00,,,0.01,288,WxPro DR1,2013-06-09 16:17:00,
2013-06-09 12:22:00,73.0,59.0,30.15,NNW,336,2.0,5.0,62,0.00,,,0.01,1067,WxPro DR1,2013-06-09 16:22:00,
2013-06-09 12:27:00,73.5,59.0,30.15,NNE,29,2.0,5.0,61,0.00,,,0.01,1055,WxPro DR1,2013-06-09 16:27:00,
2013-06-09 12:32:00,74.8,58.5,30.15,NNW,338,4.0,4.0,57,0.00,,,0.01,1021,WxPro DR1,2013-06-09 16:32:00,
2013-06-09 12:37:00,75.2,60.2,30.14,SW,236,1.0,5.0,60,0.00,,,0.01,1063,WxPro DR1,2013-06-09 16:37:00,
2013-06-09 12:42:00,74.8,58.5,30.15,WNW,296,1.0,6.0,57,0.00,,,0.01,990,WxPro DR1,2013-06-09 16:42:00,
2013-06-09 12:47:00,74.2,58.8,30.15,North,351,4.0,6.0,59,0.00,,,0.01,253,WxPro DR1,2013-06-09 16:47:00,
2013-06-09 12:52:00,73.6,58.6,30.15,East,94,0.0,6.0,59,0.00,,,0.01,1035,WxPro DR1,2013-06-09 16:52:00,
2013-06-09 12:57:00,73.8,58.2,30.15,WSW,245,3.0,4.0,58,0.00,,,0.01,357,WxPro DR1,2013-06-09 16:57:00,
2013-06-09 13:02:00,72.8,57.9,30.15,WSW,248,0.0,4.0,60,0.00,,,0.01,1127,WxPro DR1,2013-06-09 17:02:00,
2013-06-09 13:07:00,72.4,58.2,30.14,WSW,242,0.0,4.0,61,0.00,,,0.01,1134,WxPro DR1,2013-06-09 17:07:00,
2013-06-09 13:12:00,73.2,58.6,30.14,NNE,32,0.0,5.0,60,0.00,,,0.01,1125,WxPro DR1,2013-06-09 17:12:00,
2013-06-09 13:17:00,74.5,59.5,30.14,East,94,0.0,6.0,59,0.00,,,0.01,279,WxPro DR1,2013-06-09 17:17:00,
2013-06-09 13:22:00,74.8,58.6,30.14,East,93,0.0,6.0,57,0.00,,,0.01,330,WxPro DR1,2013-06-09 17:22:00,
2013-06-09 13:27:00,75.0,59.1,30.14,East,94,0.0,2.0,58,0.00,,,0.01,1065,WxPro DR1,2013-06-09 17:27:00,
2013-06-09 13:32:00,75.3,59.0,30.14,East,94,0.0,2.0,57,0.00,,,0.01,977,WxPro DR1,2013-06-09 17:32:00,
2013-06-09 13:37:00,75.9,58.8,30.14,NNE,14,2.0,3.0,55,0.00,,,0.01,1058,WxPro DR1,2013-06-09 17:37:00,
2013-06-09 13:42:00,76.3,57.9,30.14,NNE,30,0.0,5.0,53,0.00,,,0.01,188,WxPro DR1,2013-06-09 17:42:00,
2013-06-09 13:47:00,75.5,58.7,30.14,NNE,30,0.0,5.0,56,0.00,,,0.01,174,WxPro DR1,2013-06-09 17:47:00,
2013-06-09 13:52:00,74.9,57.7,30.13,NNE,28,0.0,3.0,55,0.00,,,0.01,1069,WxPro DR1,2013-06-09 17:52:00,
2013-06-09 13:57:00,74.4,58.2,30.13,West,269,2.0,5.0,57,0.00,,,0.01,1048,WxPro DR1,2013-06-09 17:57:00,
2013-06-09 14:02:00,74.3,59.0,30.13,West,269,1.0,5.0,59,0.00,,,0.01,1056,WxPro DR1,2013-06-09 18:02:00,
2013-06-09 14:07:00,74.9,58.8,30.13,West,269,0.0,3.0,57,0.00,,,0.01,1130,WxPro DR1,2013-06-09 18:07:00,
2013-06-09 14:12:00,75.4,59.6,30.13,NE,52,1.0,5.0,58,0.00,,,0.01,1151,WxPro DR1,2013-06-09 18:12:00,
2013-06-09 14:17:00,76.5,59.7,30.13,NE,45,0.0,5.0,56,0.00,,,0.01,309,WxPro DR1,2013-06-09 18:17:00,
2013-06-09 14:22:00,76.8,60.0,30.13,NE,36,0.0,5.0,56,0.00,,,0.01,264,WxPro DR1,2013-06-09 18:22:00,
2013-06-09 14:27:00,76.6,59.3,30.13,NE,36,0.0,5.0,55,0.00,,,0.01,281,WxPro DR1,2013-06-09 18:27:00,
2013-06-09 14:32:00,76.5,60.5,30.13,NE,36,1.0,3.0,58,0.00,,,0.01,316,WxPro DR1,2013-06-09 18:32:00,
2013-06-09 14:37:00,76.1,59.1,30.13,NE,36,0.0,2.0,56,0.00,,,0.01,345,WxPro DR1,2013-06-09 18:37:00,
2013-06-09 14:42:00,75.5,58.5,30.13,NE,37,1.0,3.0,56,0.00,,,0.01,1081,WxPro DR1,2013-06-09 18:42:00,
2013-06-09 14:47:00,75.7,59.4,30.13,NE,37,0.0,3.0,57,0.00,,,0.01,1148,WxPro DR1,2013-06-09 18:47:00,
2013-06-09 14:52:00,76.9,60.8,30.13,NE,36,2.0,3.0,58,0.00,,,0.01,260,WxPro DR1,2013-06-09 18:52:00,
2013-06-09 14:57:00,77.6,61.3,30.13,NE,41,2.0,6.0,57,0.00,,,0.01,1104,WxPro DR1,2013-06-09 18:57:00,
2013-06-09 15:02:00,77.4,60.9,30.12,NE,41,0.0,6.0,57,0.00,,,0.01,981,WxPro DR1,2013-06-09 19:02:00,
2013-06-09 15:07:00,77.7,60.3,30.13,ENE,71,1.0,5.0,55,0.00,,,0.01,954,WxPro DR1,2013-06-09 19:07:00,
2013-06-09 15:12:00,77.8,60.6,30.12,ENE,72,1.0,5.0,56,0.00,,,0.01,315,WxPro DR1,2013-06-09 19:12:00,
2013-06-09 15:17:00,77.8,60.8,30.12,ENE,72,2.0,3.0,56,0.01,,,0.02,916,WxPro DR1,2013-06-09 19:17:00,
2013-06-09 15:22:00,78.1,60.4,30.12,ENE,72,0.0,3.0,55,0.01,,,0.02,928,WxPro DR1,2013-06-09 19:22:00,
2013-06-09 15:27:00,78.9,61.1,30.12,ENE,72,1.0,3.0,54,0.01,,,0.02,914,WxPro DR1,2013-06-09 19:27:00,
2013-06-09 15:32:00,79.5,61.8,30.12,ENE,71,2.0,5.0,55,0.01,,,0.02,925,WxPro DR1,2013-06-09 19:32:00,
2013-06-09 15:37:00,79.1,62.1,30.12,East,101,1.0,6.0,56,0.01,,,0.02,949,WxPro DR1,2013-06-09 19:37:00,
2013-06-09 15:42:00,78.4,61.5,30.12,NNE,33,3.0,7.0,56,0.01,,,0.02,926,WxPro DR1,2013-06-09 19:42:00,
2013-06-09 15:47:00,77.6,60.9,30.12,East,87,1.0,9.0,56,0.01,,,0.02,933,WxPro DR1,2013-06-09 19:47:00,
2013-06-09 15:52:00,77.5,60.1,30.12,NE,53,0.0,9.0,55,0.01,,,0.02,207,WxPro DR1,2013-06-09 19:52:00,
2013-06-09 15:57:00,77.4,60.5,30.12,ENE,74,1.0,6.0,56,0.01,,,0.02,148,WxPro DR1,2013-06-09 19:57:00,
2013-06-09 16:02:00,77.1,60.2,30.11,ENE,66,2.0,6.0,56,0.01,,,0.02,246,WxPro DR1,2013-06-09 20:02:00,
2013-06-09 16:07:00,76.7,59.6,30.11,ENE,66,0.0,4.0,56,0.01,,,0.02,197,WxPro DR1,2013-06-09 20:07:00,
2013-06-09 16:12:00,76.7,59.7,30.11,ESE,103,2.0,5.0,56,0.01,,,0.02,775,WxPro DR1,2013-06-09 20:12:00,
2013-06-09 16:17:00,77.2,59.8,30.11,East,95,3.0,5.0,55,0.00,,,0.02,751,WxPro DR1,2013-06-09 20:17:00,
2013-06-09 16:22:00,77.6,60.6,30.10,East,80,0.0,5.0,56,0.00,,,0.02,738,WxPro DR1,2013-06-09 20:22:00,
2013-06-09 16:27:00,78.3,60.2,30.10,East,81,1.0,4.0,54,0.00,,,0.02,744,WxPro DR1,2013-06-09 20:27:00,
2013-06-09 16:32:00,78.9,60.0,30.10,East,88,0.0,4.0,53,0.00,,,0.02,735,WxPro DR1,2013-06-09 20:32:00,
2013-06-09 16:37:00,79.3,60.3,30.10,East,88,0.0,4.0,52,0.00,,,0.02,782,WxPro DR1,2013-06-09 20:37:00,
2013-06-09 16:42:00,80.2,60.7,30.10,East,88,2.0,2.0,51,0.00,,,0.02,788,WxPro DR1,2013-06-09 20:42:00,
2013-06-09 16:47:00,81.1,60.1,30.10,East,93,1.0,4.0,49,0.00,,,0.02,752,WxPro DR1,2013-06-09 20:47:00,
2013-06-09 16:52:00,80.0,59.7,30.10,East,92,1.0,4.0,50,0.00,,,0.02,220,WxPro DR1,2013-06-09 20:52:00,
2013-06-09 16:57:00,79.1,59.1,30.10,East,93,2.0,4.0,51,0.00,,,0.02,659,WxPro DR1,2013-06-09 20:57:00,
2013-06-09 17:02:00,78.7,58.5,30.10,East,93,0.0,2.0,50,0.00,,,0.02,642,WxPro DR1,2013-06-09 21:02:00,
2013-06-09 17:07:00,79.2,59.7,30.09,East,93,0.0,2.0,52,0.00,,,0.02,645,WxPro DR1,2013-06-09 21:07:00,
2013-06-09 17:12:00,79.1,59.8,30.10,East,93,0.0,4.0,52,0.00,,,0.02,503,WxPro DR1,2013-06-09 21:12:00,
2013-06-09 17:17:00,78.7,60.1,30.10,East,92,1.0,4.0,53,0.00,,,0.02,476,WxPro DR1,2013-06-09 21:17:00,
2013-06-09 17:22:00,78.5,59.4,30.10,East,93,0.0,2.0,52,0.00,,,0.02,369,WxPro DR1,2013-06-09 21:22:00,
2013-06-09 17:27:00,78.1,59.1,30.10,SSE,161,3.0,3.0,52,0.00,,,0.02,631,WxPro DR1,2013-06-09 21:27:00,
2013-06-09 17:32:00,78.2,60.7,30.10,SSE,163,0.0,3.0,55,0.00,,,0.02,584,WxPro DR1,2013-06-09 21:32:00,
2013-06-09 17:37:00,78.9,59.9,30.10,SSE,163,1.0,3.0,52,0.00,,,0.02,415,WxPro DR1,2013-06-09 21:37:00,
2013-06-09 17:42:00,78.8,59.5,30.10,SSE,166,0.0,3.0,52,0.00,,,0.02,585,WxPro DR1,2013-06-09 21:42:00,
2013-06-09 17:47:00,78.7,59.0,30.10,SSE,166,0.0,3.0,51,0.00,,,0.02,443,WxPro DR1,2013-06-09 21:47:00,
2013-06-09 17:52:00,78.3,59.5,30.09,ESE,122,2.0,5.0,52,0.00,,,0.02,554,WxPro DR1,2013-06-09 21:52:00,
2013-06-09 17:57:00,77.8,59.4,30.09,ESE,118,0.0,5.0,53,0.00,,,0.02,392,WxPro DR1,2013-06-09 21:57:00,
2013-06-09 18:02:00,77.6,58.7,30.09,ESE,115,1.0,3.0,52,0.00,,,0.02,385,WxPro DR1,2013-06-09 22:02:00,
2013-06-09 18:07:00,77.3,60.5,30.09,ESE,115,0.0,3.0,56,0.00,,,0.02,388,WxPro DR1,2013-06-09 22:07:00,
2013-06-09 18:12:00,77.4,59.3,30.09,ESE,114,0.0,1.0,54,0.00,,,0.02,353,WxPro DR1,2013-06-09 22:12:00,
2013-06-09 18:17:00,77.5,59.0,30.09,ESE,115,0.0,1.0,53,0.00,,,0.02,176,WxPro DR1,2013-06-09 22:17:00,
2013-06-09 18:22:00,77.8,59.3,30.09,ESE,115,0.0,1.0,53,0.00,,,0.02,229,WxPro DR1,2013-06-09 22:22:00,
2013-06-09 18:27:00,78.2,59.1,30.09,ESE,114,0.0,1.0,52,0.00,,,0.02,301,WxPro DR1,2013-06-09 22:27:00,
2013-06-09 18:32:00,78.3,59.3,30.09,ESE,115,0.0,2.0,52,0.00,,,0.02,364,WxPro DR1,2013-06-09 22:32:00,
2013-06-09 18:37:00,78.3,59.9,30.09,ESE,113,0.0,2.0,53,0.00,,,0.02,343,WxPro DR1,2013-06-09 22:37:00,
2013-06-09 18:42:00,78.1,59.8,30.09,ESE,113,1.0,1.0,53,0.00,,,0.02,338,WxPro DR1,2013-06-09 22:42:00,
2013-06-09 18:47:00,78.0,59.4,30.09,ESE,108,1.0,3.0,53,0.00,,,0.02,316,WxPro DR1,2013-06-09 22:47:00,
2013-06-09 18:52:00,78.1,59.3,30.09,ESE,107,1.0,3.0,52,0.01,,,0.03,295,WxPro DR1,2013-06-09 22:52:00,
2013-06-09 18:57:00,78.0,60.1,30.09,East,90,3.0,4.0,54,0.01,,,0.03,278,WxPro DR1,2013-06-09 22:57:00,
2013-06-09 19:02:00,77.5,61.0,30.09,East,88,3.0,4.0,57,0.01,,,0.03,255,WxPro DR1,2013-06-09 23:02:00,
2013-06-09 19:07:00,76.9,60.9,30.09,ENE,57,1.0,4.0,58,0.01,,,0.03,239,WxPro DR1,2013-06-09 23:07:00,
2013-06-09 19:12:00,76.3,60.5,30.09,NE,44,1.0,5.0,58,0.01,,,0.03,214,WxPro DR1,2013-06-09 23:12:00,
2013-06-09 19:17:00,75.8,60.5,30.09,NE,42,1.0,5.0,59,0.01,,,0.03,192,WxPro DR1,2013-06-09 23:17:00,
2013-06-09 19:22:00,75.5,61.0,30.10,NE,46,0.0,4.0,61,0.01,,,0.03,167,WxPro DR1,2013-06-09 23:22:00,
2013-06-09 19:27:00,75.0,60.6,30.10,ENE,69,0.0,4.0,61,0.01,,,0.03,128,WxPro DR1,2013-06-09 23:27:00,
2013-06-09 19:32:00,74.2,60.8,30.10,ENE,65,0.0,4.0,63,0.01,,,0.03,100,WxPro DR1,2013-06-09 23:32:00,
2013-06-09 19:37:00,73.8,60.8,30.10,ENE,62,0.0,3.0,64,0.01,,,0.03,90,WxPro DR1,2013-06-09 23:37:00,
2013-06-09 19:42:00,73.7,60.7,30.10,ENE,62,0.0,2.0,64,0.01,,,0.03,79,WxPro DR1,2013-06-09 23:42:00,
2013-06-09 19:47:00,73.5,61.4,30.10,ENE,61,0.0,1.0,66,0.01,,,0.03,63,WxPro DR1,2013-06-09 23:47:00,
2013-06-09 19:52:00,73.2,61.2,30.09,ENE,60,1.0,3.0,66,0.00,,,0.03,54,WxPro DR1,2013-06-09 23:52:00,
2013-06-09 19:57:00,72.7,61.5,30.09,ENE,61,0.0,3.0,68,0.00,,,0.03,49,WxPro DR1,2013-06-09 23:57:00,
2013-06-09 20:02:00,72.2,61.0,30.09,ENE,59,0.0,4.0,68,0.00,,,0.03,47,WxPro DR1,2013-06-10 00:02:00,
2013-06-09 20:07:00,71.7,60.9,30.09,ENE,58,0.0,4.0,69,0.00,,,0.03,37,WxPro DR1,2013-06-10 00:07:00,
2013-06-09 20:12:00,71.2,60.5,30.10,ENE,60,1.0,2.0,69,0.00,,,0.03,32,WxPro DR1,2013-06-10 00:12:00,
2013-06-09 20:17:00,70.7,60.4,30.10,NE,56,0.0,4.0,70,0.00,,,0.03,23,WxPro DR1,2013-06-10 00:17:00,
2013-06-09 20:22:00,70.2,60.4,30.10,ENE,57,0.0,4.0,71,0.00,,,0.03,19,WxPro DR1,2013-06-10 00:22:00,
2013-06-09 20:27:00,69.9,60.0,30.10,ENE,57,0.0,3.0,71,0.00,,,0.03,14,WxPro DR1,2013-06-10 00:27:00,
2013-06-09 20:32:00,69.5,60.1,30.10,NE,55,0.0,4.0,72,0.00,,,0.03,11,WxPro DR1,2013-06-10 00:32:00,
2013-06-09 20:37:00,69.2,60.2,30.10,ENE,59,0.0,4.0,73,0.00,,,0.03,7,WxPro DR1,2013-06-10 00:37:00,
2013-06-09 20:42:00,68.9,60.2,30.10,ENE,59,0.0,3.0,74,0.00,,,0.03,0,WxPro DR1,2013-06-10 00:42:00,
2013-06-09 20:47:00,68.6,60.0,30.10,ENE,59,0.0,3.0,74,0.00,,,0.03,0,WxPro DR1,2013-06-10 00:47:00,
2013-06-09 20:52:00,68.3,60.0,30.10,ENE,59,0.0,3.0,75,0.00,,,0.03,0,WxPro DR1,2013-06-10 00:52:00,
2013-06-09 20:57:00,68.0,59.8,30.10,ENE,59,0.0,3.0,75,0.00,,,0.03,0,WxPro DR1,2013-06-10 00:57:00,
2013-06-09 21:02:00,67.7,59.8,30.10,ENE,59,0.0,3.0,76,0.00,,,0.03,0,WxPro DR1,2013-06-10 01:02:00,
2013-06-09 21:07:00,67.5,59.6,30.10,ENE,59,0.0,2.0,76,0.00,,,0.03,0,WxPro DR1,2013-06-10 01:07:00,
2013-06-09 21:12:00,67.3,59.8,30.10,ENE,59,0.0,1.0,77,0.00,,,0.03,0,WxPro DR1,2013-06-10 01:12:00,
2013-06-09 21:17:00,67.0,59.9,30.10,ENE,59,0.0,0.0,78,0.00,,,0.03,0,WxPro DR1,2013-06-10 01:17:00,
2013-06-09 21:22:00,66.7,59.7,30.10,ENE,59,0.0,2.0,78,0.00,,,0.03,0,WxPro DR1,2013-06-10 01:22:00,
2013-06-09 21:27:00,66.5,59.7,30.10,ENE,61,2.0,3.0,79,0.00,,,0.03,0,WxPro DR1,2013-06-10 01:27:00,
2013-06-09 21:32:00,66.2,59.8,30.09,ENE,64,0.0,3.0,80,0.00,,,0.03,0,WxPro DR1,2013-06-10 01:32:00,
2013-06-09 21:37:00,66.0,59.7,30.10,ENE,72,0.0,3.0,80,0.00,,,0.03,0,WxPro DR1,2013-06-10 01:37:00,
2013-06-09 21:42:00,65.9,59.5,30.11,ENE,72,0.0,3.0,80,0.00,,,0.03,0,WxPro DR1,2013-06-10 01:42:00,
2013-06-09 21:47:00,65.8,59.8,30.11,ENE,72,0.0,1.0,81,0.00,,,0.03,0,WxPro DR1,2013-06-10 01:47:00,
2013-06-09 21:52:00,65.6,59.6,30.11,ENE,72,0.0,2.0,81,0.00,,,0.03,0,WxPro DR1,2013-06-10 01:52:00,
2013-06-09 21:57:00,65.4,59.4,30.11,ENE,72,0.0,2.0,81,0.00,,,0.03,0,WxPro DR1,2013-06-10 01:57:00,
2013-06-09 22:02:00,65.2,59.6,30.10,ENE,72,0.0,3.0,82,0.00,,,0.03,0,WxPro DR1,2013-06-10 02:02:00,
2013-06-09 22:07:00,65.1,59.4,30.10,ENE,72,0.0,3.0,82,0.00,,,0.03,0,WxPro DR1,2013-06-10 02:07:00,
2013-06-09 22:12:00,64.9,59.6,30.10,ENE,72,0.0,1.0,83,0.00,,,0.03,0,WxPro DR1,2013-06-10 02:12:00,
2013-06-09 22:17:00,64.7,59.6,30.10,ENE,72,0.0,1.0,84,0.00,,,0.03,0,WxPro DR1,2013-06-10 02:17:00,
2013-06-09 22:22:00,64.4,59.5,30.11,ENE,72,0.0,1.0,84,0.00,,,0.03,0,WxPro DR1,2013-06-10 02:22:00,
2013-06-09 22:28:00,64.2,59.2,30.11,ENE,72,0.0,1.0,84,0.00,,,0.03,0,WxPro DR1,2013-06-10 02:28:00,
2013-06-09 22:33:00,64.1,59.4,30.11,ENE,72,0.0,1.0,85,0.00,,,0.03,0,WxPro DR1,2013-06-10 02:33:00,
2013-06-09 22:38:00,64.0,59.4,30.11,ENE,72,0.0,2.0,85,0.00,,,0.03,0,WxPro DR1,2013-06-10 02:38:00,
2013-06-09 22:43:00,64.0,59.4,30.11,East,79,0.0,3.0,85,0.00,,,0.03,0,WxPro DR1,2013-06-10 02:43:00,
2013-06-09 22:48:00,63.9,59.3,30.11,ENE,78,1.0,3.0,85,0.00,,,0.03,0,WxPro DR1,2013-06-10 02:48:00,
2013-06-09 22:53:00,63.8,59.2,30.10,East,79,0.0,2.0,85,0.00,,,0.03,0,WxPro DR1,2013-06-10 02:53:00,
2013-06-09 22:58:00,63.8,59.2,30.10,East,79,0.0,2.0,85,0.00,,,0.03,0,WxPro DR1,2013-06-10 02:58:00,
2013-06-09 23:03:00,63.8,59.2,30.10,East,79,0.0,1.0,85,0.00,,,0.03,0,WxPro DR1,2013-06-10 03:03:00,
2013-06-09 23:08:00,63.8,59.2,30.10,East,79,0.0,1.0,85,0.00,,,0.03,0,WxPro DR1,2013-06-10 03:08:00,
2013-06-09 23:13:00,63.8,59.2,30.10,East,79,0.0,3.0,85,0.00,,,0.03,0,WxPro DR1,2013-06-10 03:13:00,
2013-06-09 23:18:00,63.8,59.2,30.10,East,79,0.0,3.0,85,0.00,,,0.03,0,WxPro DR1,2013-06-10 03:18:00,
2013-06-09 23:23:00,63.6,59.0,30.10,East,79,2.0,2.0,85,0.00,,,0.03,0,WxPro DR1,2013-06-10 03:23:00,
2013-06-09 23:28:00,63.6,59.0,30.09,East,79,0.0,2.0,85,0.00,,,0.03,0,WxPro DR1,2013-06-10 03:28:00,
2013-06-09 23:33:00,63.6,59.0,30.09,East,79,0.0,2.0,85,0.00,,,0.03,0,WxPro DR1,2013-06-10 03:33:00,
2013-06-09 23:38:00,63.5,59.2,30.10,East,79,0.0,2.0,86,0.00,,,0.03,0,WxPro DR1,2013-06-10 03:38:00,
2013-06-09 23:43:00,63.4,59.1,30.09,East,79,0.0,2.0,86,0.00,,,0.03,0,WxPro DR1,2013-06-10 03:43:00,
2013-06-09 23:48:00,63.4,58.8,30.09,East,82,0.0,3.0,85,0.00,,,0.03,0,WxPro DR1,2013-06-10 03:48:00,
2013-06-09 23:53:00,63.4,58.8,30.09,East,83,1.0,3.0,85,0.00,,,0.03,0,WxPro DR1,2013-06-10 03:53:00,
2013-06-09 23:58:00,63.4,59.1,30.09,East,85,1.0,3.0,86,0.00,,,0.03,0,WxPro DR1,2013-06-10 03:58:00,